Torna al catalogo

CZ-6A DEB

AttivoPO
NORAD 61122·DEBRIS·🇨🇳 China

Lanciato Aug 6, 2024 da Taiyuan Satellite Launch Center

Loading…

Prossimi Passaggi (prossime 24 ore)

TLE

AggiornatoSource: Space-Track

Epoca: Sep 14, 2026, 18:02 UTC

1 61122U 24140PQ  26257.75160080  .00001138  00000-0  23188-3 0  9990
2 61122  89.0186 261.4591 0115680 316.3645  42.8459 14.56186309108849

Traccia CZ-6A DEB in tempo reale con AllMySat

Download on the App Store